Weather History for St. Augustine, FL

Change the Weather History Date:

Thursday, June 27, 2013

  Actual Average Record
Temperature  
Mean Temperature 80 °F -  
Max Temperature 89 °F 84 °F 98 °F (1988)
Min Temperature 72 °F 70 °F 63 °F (1988)
Cooling Degree Days 16    
Growing Degree Days 30 (Base 50)    
Moisture  
Dew Point 73 °F    
Average Humidity 81    
Maximum Humidity 94    
Minimum Humidity 55    
Precipitation  
Precipitation 0.04 in - - ()
Sea Level Pressure  
Sea Level Pressure 29.99 in    
Wind  
Wind Speed 7 mph (SSW)    
Max Wind Speed 24 mph    
Max Gust Speed 29 mph    
Visibility 9 miles    
Events Rain , Thunderstorm    
Averages and records for this station are not official NWS values.
T = Trace of Precipitation, MM = Missing Value Source: NWS Daily Summary

Daily Weather History Graph

Daily Weather History Graph

Search for Another Location

Airport:

Trip Planner

Search our weather history database for the weather conditions in past years. The results will help you decide how hot, cold, wet, or windy it might be!

Date:

Astronomy

Jun. 27, 2013 Rise Set
Actual Time 6:26 AM EDT 8:30 PM EDT
Civil Twilight 5:59 AM EDT 8:57 PM EDT
Nautical Twilight 5:25 AM EDT 9:31 PM EDT
Astronomical Twilight 4:50 AM EDT 10:06 PM EDT
Moon 11:51 PM EDT (6/27) 11:04 AM EDT (6/27)
Length of Visible Light 14h 58m
Length of Day
14h 03m
Waning Gibbous, 76% of the Moon is Illuminated
Jun 27
Waning Gibbous
Jun 30
Last Quarter
Jul 8
New
Jul 15
First Quarter
Jul 22
Full

Hourly Weather History & Observations

Time (EDT) Temp. Heat Index Dew Point Humidity Pressure Visibility Wind Dir Wind Speed Gust Speed Precip Events Conditions
12:58 AM 75.0 °F - 73.0 °F 94% 30.06 in 10.0 mi SW 4.6 mph - N/A   Unknown
1:58 AM 75.0 °F - 72.0 °F 90% 30.04 in 10.0 mi SW 5.8 mph - N/A   Unknown
2:58 AM 73.9 °F - 71.1 °F 91% 30.03 in 10.0 mi WSW 4.6 mph - N/A   Unknown
3:58 AM 73.0 °F - 71.1 °F 93% 30.03 in 10.0 mi SW 3.5 mph - N/A   Unknown
4:58 AM 72.0 °F - 70.0 °F 93% 30.02 in 10.0 mi West 4.6 mph - N/A   Unknown
5:58 AM 72.0 °F - 70.0 °F 93% 30.04 in 10.0 mi SW 3.5 mph - N/A   Unknown
6:58 AM 72.0 °F - 70.0 °F 93% 30.03 in 10.0 mi SW 4.6 mph - N/A   Clear
7:58 AM 75.0 °F - 70.0 °F 84% 30.04 in 10.0 mi WSW 6.9 mph - N/A   Clear
8:58 AM 79.0 °F - 72.0 °F 79% 30.04 in 10.0 mi WSW 5.8 mph - N/A   Clear
9:58 AM 82.0 °F 87.9 °F 73.9 °F 76% 30.04 in 10.0 mi Variable 5.8 mph - N/A   Clear
10:58 AM 84.9 °F 93.3 °F 75.0 °F 72% 30.04 in 10.0 mi Variable 5.8 mph 16.1 mph N/A   Scattered Clouds
11:58 AM 87.1 °F 95.4 °F 73.9 °F 65% 30.03 in 10.0 mi WSW 8.1 mph - N/A   Scattered Clouds
12:58 PM 89.1 °F 95.0 °F 71.1 °F 55% 30.01 in 10.0 mi Variable 4.6 mph - N/A   Scattered Clouds
1:58 PM 88.0 °F 98.5 °F 75.9 °F 67% 30.00 in 10.0 mi ESE 15.0 mph - N/A   Scattered Clouds
2:58 PM 87.1 °F 97.3 °F 75.9 °F 69% 29.98 in 10.0 mi SE 13.8 mph - N/A   Scattered Clouds
3:58 PM 89.1 °F 100.2 °F 75.9 °F 65% 29.96 in 10.0 mi SE 13.8 mph - N/A   Scattered Clouds
4:02 PM 87.8 °F 97.6 °F 75.2 °F 66% 29.95 in 10.0 mi SE 13.8 mph - N/A Thunderstorm Unknown
4:36 PM 84.2 °F 90.9 °F 73.4 °F 70% 29.95 in 10.0 mi SSE 24.2 mph 28.8 mph N/A Rain , Thunderstorm Rain
4:58 PM 78.1 °F - 73.0 °F 84% 29.98 in 5.0 mi Variable 3.5 mph - N/A Rain , Thunderstorm Thunderstorms and Rain
5:02 PM 78.8 °F - 73.4 °F 83% 29.96 in 4.0 mi Variable 3.5 mph - 0.00 in Rain , Thunderstorm Thunderstorms and Rain
5:39 PM 77.0 °F - 73.4 °F 89% 29.95 in 3.0 mi South 3.5 mph - 0.04 in Rain Light Rain
5:58 PM 78.1 °F - 73.0 °F 84% 29.94 in 3.0 mi South 5.8 mph - 0.04 in   Haze
6:58 PM 82.9 °F 90.8 °F 75.9 °F 79% 29.93 in 7.0 mi SSE 10.4 mph - N/A   Scattered Clouds
7:58 PM 82.0 °F 90.2 °F 77.0 °F 85% 29.94 in 10.0 mi South 6.9 mph - N/A   Unknown
8:58 PM 80.1 °F 85.8 °F 77.0 °F 90% 29.94 in 10.0 mi South 6.9 mph - N/A   Unknown
9:58 PM 80.1 °F 85.4 °F 75.9 °F 87% 29.95 in 10.0 mi SSW 5.8 mph - N/A   Unknown
10:58 PM 79.0 °F - 75.0 °F 88% 29.96 in 10.0 mi SSW 4.6 mph - N/A   Unknown
11:58 PM 79.0 °F - 73.9 °F 84% 29.95 in 10.0 mi SSW 6.9 mph - N/A   Unknown